Погода во Власихе

Россия / Московская область     55°40′50″N   37°11′24″E
темп.,
°C
ветер,
м/с
пор.,
м/с
влажн.,
%
обл.,
%
осадки,
мм/ч
давл.,
гПа
погр.,
м
2 декабря, чт
чт200:00−8з4109093 0.0 996539
03:00−8з4109193 0.0 998464
06:00−8зюз399266 0.0 1000399
09:00−9юз3993100 0.0 1002336
12:00−5ююз3889100 0.0 1001393
15:00−4ююв3890100 0.1 1000663
18:00−3ю51294100 1.3 998677
21:00−2ююз41295100 1.6 998564
3 декабря, пт
пт300:00+1юз51397100 0.3 997709
03:00+1юз51295100 0.3 998802
06:00+1юз4129059 0.1 999517
09:00+1юз4108796 0.3 1001595
12:00+1юз41089100 0.0 1002573
15:00+1ю4988100 0.0 1001422
18:000ююв12100100 0.8 100164
21:000сз01100100 4.8 99895
4 декабря, сб
сб400:00−1зюз3898100 1.5 999479
03:00−1зюз51090100 2.1 1000779
06:00−3зюз61283100 0.1 1001986
09:00−3зюз6139099 0.2 10031130
12:00−3зюз71386100 0.1 10041054
15:00−3зюз61183100 0.1 10071037
18:00−5з51187100 0.0 1010822
21:00−4з5988100 0.1 1012932
5 декабря, вс
вс500:00−5з4109199 0.1 1014795
03:00−7зюз269790 0.1 1016178
06:00−8зюз2597100 0.0 1017111
09:00−7юз139751 0.0 101866
12:00−4ююз1294100 0.1 1020201
15:00−4юв1297100 0.2 102082
18:00−3вюв1297100 0.1 1021103
21:00−3вюв2497100 0.1 1021153
6 декабря, пн
пн600:00−4вюв2697100 0.1 1023235
03:00−4в3797100 0.1 1023276
06:00−4в41096100 0.0 1023401
09:00−5в51196100 0.0 1024467
12:00−4вюв51295100 0.0 1024535
15:00−3вюв51193100 0.1 1023773
18:00−4вюв61395100 1.1 1022745
21:00−3юв51296100 2.2 1021634